| time (UTC) | temp C | wind direction | speed KPH | gust KPH | rain 1hr cm | rain 24hr cm | rain mn cm | humidity % | barometer mb |
| 20260507094521 | 10 | 73 | 0.0 | 1.6 | 0.05 | 1.24 | 0.51 | 94 | 1007.6 |
| 20260507093033 | 10 | 305 | 0.0 | 1.6 | 0.05 | 1.24 | 0.51 | 94 | 1007.3 |
| 20260507091515 | 10 | 265 | 0.0 | 1.6 | 0.03 | 1.22 | 0.48 | 94 | 1007.8 |
| 20260507090027 | 10 | 51 | 0.0 | 1.6 | 0.05 | 1.19 | 0.46 | 94 | 1007.7 |
| 20260507084515 | 10 | 12 | 0.0 | 1.6 | 0.08 | 1.19 | 0.46 | 94 | 1007.6 |
| 20260507083031 | 10 | 14 | 0.0 | 1.6 | 0.10 | 1.19 | 0.46 | 94 | 1007.1 |
| 20260507081513 | 10 | 38 | 0.0 | 1.6 | 0.20 | 1.19 | 0.46 | 94 | 1006.9 |
| 20260507080010 | 10 | 30 | 0.0 | 4.8 | 0.36 | 1.14 | 0.41 | 93 | 1007.1 |
| 20260507074523 | 11 | 23 | 0.0 | 3.2 | 0.36 | 1.12 | 0.38 | 94 | 1007.2 |
| 20260507073006 | 11 | 28 | 0.0 | 6.4 | 0.33 | 1.09 | 0.36 | 93 | 1007.5 |
| 20260507071504 | 11 | 75 | 0.0 | 3.2 | 0.20 | 0.97 | 0.23 | 92 | 1006.8 |
| 20260507070003 | 12 | 34 | 0.0 | 1.6 | 0.03 | 0.79 | 0.05 | 92 | 1006.9 |
| 20260507064600 | 12 | 239 | 0.0 | 3.2 | 0.00 | 0.76 | 0.03 | 92 | 1006.3 |
| 20260507063100 | 12 | 42 | 0.0 | 1.6 | 0.00 | 0.76 | 0.03 | 93 | 1006.4 |
| 20260507061556 | 12 | 356 | 1.6 | 3.2 | 0.00 | 0.76 | 0.03 | 93 | 1006.4 |
| 20260507060052 | 12 | 32 | 0.0 | 1.6 | 0.03 | 0.76 | 0.03 | 94 | 1006.5 |
| 20260507054602 | 13 | 303 | 0.0 | 1.6 | 0.03 | 0.76 | 0.03 | 96 | 1006.7 |
| 20260507053049 | 13 | 302 | 0.0 | 1.6 | 0.03 | 0.76 | 0.03 | 96 | 1006.8 |
| 20260507051548 | 13 | 302 | 0.0 | 0.0 | 0.03 | 0.76 | 0.03 | 96 | 1006.9 |
| 20260507050046 | 13 | 302 | 0.0 | 1.6 | 0.00 | 0.71 | 0.00 | 95 | 1007.1 |
| 20260507044546 | 13 | 302 | 0.0 | 1.6 | 0.03 | 0.71 | 0.00 | 95 | 1007.2 |
| 20260507043044 | 13 | 269 | 0.0 | 3.2 | 0.05 | 0.71 | 0.00 | 96 | 1007.4 |
| 20260507041541 | 12 | 334 | 0.0 | 0.0 | 0.05 | 0.71 | 0.00 | 95 | 1007.4 |
| 20260507040048 | 12 | 258 | 0.0 | 1.6 | 0.05 | 0.71 | 0.00 | 95 | 1007.4 |
| 20260507034545 | 12 | 258 | 0.0 | 0.0 | 0.03 | 0.71 | 0.71 | 95 | 1007.4 |
| 20260507033040 | 12 | 258 | 0.0 | 0.0 | 0.00 | 0.69 | 0.69 | 95 | 1007.5 |
| 20260507031537 | 12 | 258 | 0.0 | 0.0 | 0.00 | 0.69 | 0.69 | 95 | 1007.6 |
| 20260507030037 | 12 | 258 | 0.0 | 1.6 | 0.00 | 0.69 | 0.69 | 95 | 1007.6 |
| 20260507024536 | 12 | 262 | 0.0 | 3.2 | 0.00 | 0.69 | 0.69 | 95 | 1007.6 |
| 20260507023035 | 12 | 272 | 0.0 | 1.6 | 0.00 | 0.69 | 0.69 | 95 | 1007.4 |
| 20260507021534 | 12 | 273 | 0.0 | 3.2 | 0.00 | 0.69 | 0.69 | 94 | 1007.7 |
| 20260507020035 | 12 | 251 | 0.0 | 6.4 | 0.00 | 0.69 | 0.69 | 94 | 1008.0 |
| 20260507014533 | 12 | 270 | 0.0 | 6.4 | 0.00 | 0.69 | 0.69 | 94 | 1008.0 |
| 20260507013037 | 12 | 172 | 0.0 | 4.8 | 0.00 | 0.69 | 0.69 | 94 | 1007.7 |
| 20260507011538 | 12 | 152 | 0.0 | 3.2 | 0.00 | 0.69 | 0.69 | 94 | 1007.7 |
| 20260507010031 | 12 | 209 | 0.0 | 1.6 | 0.00 | 0.69 | 0.69 | 94 | 1007.9 |
| 20260507004530 | 12 | 187 | 0.0 | 3.2 | 0.00 | 0.69 | 0.69 | 94 | 1008.1 |
| 20260507003029 | 12 | 302 | 0.0 | 3.2 | 0.00 | 0.69 | 0.69 | 93 | 1008.2 |
| 20260507001531 | 12 | 277 | 0.0 | 3.2 | 0.00 | 0.69 | 0.69 | 93 | 1008.2 |
| 20260507000028 | 12 | 274 | 0.0 | 4.8 | 0.00 | 0.69 | 0.69 | 93 | 1007.9 |
| 20260506234538 | 12 | 295 | 1.6 | 8.0 | 0.00 | 0.69 | 0.69 | 93 | 1007.8 |
| 20260506233029 | 12 | 313 | 1.6 | 6.4 | 0.00 | 0.69 | 0.69 | 93 | 1007.8 |
| 20260506231531 | 12 | 284 | 3.2 | 8.0 | 0.00 | 0.69 | 0.69 | 93 | 1007.9 |
| 20260506230025 | 12 | 163 | 1.6 | 11.3 | 0.00 | 0.69 | 0.69 | 93 | 1007.8 |
| 20260506224529 | 13 | 337 | 3.2 | 14.5 | 0.03 | 0.69 | 0.69 | 94 | 1007.8 |
| 20260506223024 | 13 | 296 | 3.2 | 12.9 | 0.05 | 0.69 | 0.69 | 94 | 1007.6 |
| 20260506221523 | 13 | 132 | 1.6 | 11.3 | 0.10 | 0.69 | 0.69 | 94 | 1007.6 |
| 20260506220022 | 13 | 307 | 3.2 | 11.3 | 0.23 | 0.69 | 0.69 | 94 | 1007.6 |
| 20260506214522 | 13 | 13 | 3.2 | 9.7 | 0.38 | 0.66 | 0.66 | 94 | 1007.6 |
| 20260506213022 | 13 | 236 | 4.8 | 14.5 | 0.41 | 0.64 | 0.64 | 93 | 1007.6 |
| 20260506211519 | 13 | 299 | 1.6 | 16.1 | 0.38 | 0.56 | 0.56 | 92 | 1007.9 |
| 20260506210020 | 13 | 246 | 0.0 | 4.8 | 0.25 | 0.43 | 0.43 | 92 | 1008.1 |
| 20260506204516 | 13 | 272 | 1.6 | 6.4 | 0.13 | 0.28 | 0.28 | 91 | 1008.4 |
| 20260506203014 | 13 | 176 | 1.6 | 6.4 | 0.08 | 0.23 | 0.23 | 91 | 1008.2 |
| 20260506201519 | 13 | 193 | 3.2 | 14.5 | 0.03 | 0.18 | 0.18 | 91 | 1008.3 |
| 20260506200012 | 13 | 177 | 1.6 | 9.7 | 0.05 | 0.18 | 0.18 | 90 | 1008.2 |
| 20260506194511 | 13 | 175 | 4.8 | 11.3 | 0.10 | 0.15 | 0.15 | 90 | 1008.4 |
| 20260506193007 | 13 | 154 | 0.0 | 6.4 | 0.15 | 0.15 | 0.15 | 91 | 1008.7 |
| 20260506191507 | 13 | 238 | 3.2 | 11.3 | 0.15 | 0.15 | 0.15 | 89 | 1008.9 |
| 20260506190005 | 13 | 213 | 3.2 | 11.3 | 0.13 | 0.13 | 0.13 | 89 | 1008.8 |
| 20260506184502 | 14 | 173 | 6.4 | 17.7 | 0.05 | 0.05 | 0.05 | 88 | 1009.1 |
| 20260506183111 | 14 | 182 | 3.2 | 17.7 | 0.00 | 0.00 | 0.00 | 85 | 1009.2 |
| 20260506181601 | 15 | 321 | 3.2 | 11.3 | 0.00 | 0.00 | 0.00 | 82 | 1009.5 |
| 20260506180057 | 15 | 200 | 3.2 | 12.9 | 0.00 | 0.00 | 0.00 | 80 | 1009.9 |
| 20260506174608 | 15 | 317 | 1.6 | 9.7 | 0.00 | 0.00 | 0.00 | 79 | 1010.0 |
| 20260506173057 | 16 | 273 | 0.0 | 8.0 | 0.00 | 0.00 | 0.00 | 77 | 1010.2 |
| 20260506171602 | 16 | 248 | 1.6 | 6.4 | 0.00 | 0.00 | 0.00 | 78 | 1010.1 |
| 20260506170052 | 16 | 191 | 4.8 | 14.5 | 0.00 | 0.00 | 0.00 | 77 | 1010.5 |
| 20260506164557 | 16 | 165 | 1.6 | 11.3 | 0.00 | 0.00 | 0.00 | 75 | 1010.5 |
| 20260506163104 | 16 | 193 | 4.8 | 16.1 | 0.00 | 0.00 | 0.00 | 75 | 1010.5 |
| 20260506161549 | 17 | 270 | 1.6 | 14.5 | 0.00 | 0.00 | 0.00 | 75 | 1010.9 |
| 20260506160051 | 16 | 166 | 4.8 | 24.1 | 0.00 | 0.00 | 0.00 | 76 | 1011.1 |
| 20260506154552 | 17 | 264 | 9.7 | 30.6 | 0.00 | 0.00 | 0.00 | 75 | 1011.3 |
| 20260506153050 | 17 | 189 | 8.0 | 22.5 | 0.00 | 0.00 | 0.00 | 75 | 1011.3 |
| 20260506151547 | 17 | 329 | 4.8 | 22.5 | 0.00 | 0.00 | 0.00 | 73 | 1011.2 |
| 20260506150045 | 17 | 205 | 6.4 | 20.9 | 0.00 | 0.00 | 0.00 | 73 | 1011.2 |
| 20260506144545 | 17 | 169 | 9.7 | 27.4 | 0.00 | 0.00 | 0.00 | 74 | 1011.2 |
| 20260506143042 | 16 | 285 | 4.8 | 20.9 | 0.00 | 0.00 | 0.00 | 77 | 1011.5 |
| 20260506141541 | 16 | 208 | 3.2 | 20.9 | 0.00 | 0.00 | 0.00 | 76 | 1011.3 |
| 20260506140041 | 16 | 34 | 8.0 | 25.7 | 0.00 | 0.00 | 0.00 | 76 | 1011.2 |
| 20260506134540 | 16 | 315 | 4.8 | 19.3 | 0.00 | 0.00 | 0.00 | 77 | 1011.1 |
| 20260506133041 | 17 | 239 | 1.6 | 19.3 | 0.00 | 0.00 | 0.00 | 76 | 1010.9 |
| 20260506131538 | 16 | 248 | 4.8 | 16.1 | 0.00 | 0.00 | 0.00 | 77 | 1011.2 |
| 20260506130038 | 16 | 197 | 9.7 | 24.1 | 0.00 | 0.00 | 0.00 | 77 | 1011.5 |
| 20260506124532 | 16 | 271 | 3.2 | 19.3 | 0.00 | 0.00 | 0.00 | 78 | 1011.5 |
| 20260506123031 | 16 | 256 | 3.2 | 17.7 | 0.00 | 0.00 | 0.00 | 79 | 1011.5 |
| 20260506121530 | 15 | 201 | 4.8 | 16.1 | 0.00 | 0.00 | 0.00 | 80 | 1011.6 |
| 20260506120028 | 15 | 226 | 4.8 | 17.7 | 0.00 | 0.00 | 0.00 | 81 | 1011.4 |
| 20260506114525 | 15 | 183 | 4.8 | 19.3 | 0.00 | 0.00 | 0.00 | 82 | 1011.5 |
| 20260506113025 | 15 | 171 | 4.8 | 17.7 | 0.00 | 0.00 | 0.00 | 82 | 1011.5 |
| 20260506111528 | 14 | 251 | 3.2 | 14.5 | 0.00 | 0.00 | 0.00 | 83 | 1011.5 |
| 20260506110022 | 14 | 274 | 3.2 | 16.1 | 0.00 | 0.00 | 0.00 | 85 | 1011.7 |
| 20260506104522 | 13 | 163 | 1.6 | 16.1 | 0.00 | 0.00 | 0.00 | 86 | 1011.4 |
| 20260506103020 | 13 | 267 | 4.8 | 16.1 | 0.00 | 0.00 | 0.00 | 86 | 1011.5 |
| 20260506101519 | 13 | 208 | 4.8 | 9.7 | 0.00 | 0.00 | 0.00 | 86 | 1011.5 |
| 20260506100017 | 13 | 199 | 4.8 | 14.5 | 0.00 | 0.00 | 0.00 | 86 | 1011.3 |